Temp
72 67 65 71 74 73 71 68 68 74 80 77 75 75 79 83 84 84 85 86 86 86 91 92 91 91 92 92 91 88 83 79 78 75 73 74 72 70 69 68 70 71 72 74
71 62 73 77 76 73 71 67 66 73 77 75 73 72 78 81 82 84 84 85 85 86 89 89 86 88 89 89 88 87 83 77 75 70 69 68 69 66 64 61 61 62 62 62
66 72 76 70 69 68 67 64 66 66 72 73 69 67 74 81 81 84 84 84 84 85 85 85 82 83 87 87 86 79 76 73 71 69 66 62 59 58 56 56 56 57 58 57
69 75 71 69 67 68 60 71 67 64 61 56 69 53 64 71 74 79 81 76 79 80 79 81 79 82 83 82 83 76 72 69 68 65 59 58 59 56 58 56 55 54 55 53
65 68 66 62 66 71 64 70 67 66 62 61 62 59 69 75 73 76 77 76 76 76 75 76 75 76 75 70 67 71 68 66 63 60 59 58 55 54 53 51 51 50 50 50
65 75 69 67 70 69 71 64 64 64 61 51 62 62 66 73 71 74 76 75 75 73 73 75 73 71 66 62 59 58 57 56 58 58 56 54 51 50 48 48 48 48 48 48
61 64 70 68 62 67 65 59 50 49 48 49 66 62 66 72 74 74 72 73 73 72 72 74 73 73 67 62 57 56 54 52 53 53 53 52 51 50 49 48 47 46 46 46
55 53 64 69 63 62 61 61 52 42 47 56 66 57 67 72 73 74 74 76 74 70 70 73 74 72 69 65 62 59 56 53 54 53 52 52 52 52 51 50 49 49 47 47
58 58 70 69 69 68 63 56 66 55 57 51 58 66 74 70 69 70 70 72 72 72 71 72 72 72 71 70 66 65 64 62 60 59 57 54 55 52 51 52 51 49 47 46
63 54 66 67 70 69 65 69 54 53 39 40 55 59 62 67 67 67 68 69 72 73 73 72 72 71 74 73 72 71 69 66 62 59 58 57 57 56 54 51 50 49 48 49
65 59 59 64 60 60 60 57 58 58 54 44 44 54 71 66 68 69 71 72 73 73 73 72 72 73 74 73 71 69 68 66 61 59 58 57 56 56 55 55 53 53 53 54
64 58 52 57 68 71 67 62 59 45 46 51 50 51 72 73 74 73 73 74 76 75 74 73 73 73 73 72 71 69 69 67 65 64 60 58 57 56 55 55 55 56 55 55
62 51 45 51 59 64 58 60 61 58 55 46 41 48 70 72 72 71 70 73 74 74 74 74 72 72 72 71 71 71 70 69 68 65 63 59 56 56 55 55 53 51 50 47
54 54 50 45 51 56 52 56 58 56 43 46 48 54 62 65 65 68 71 72 72 69 71 74 72 72 72 72 72 72 71 71 69 67 62 58 56 56 55 54 52 52 52 52
55 46 52 55 57 56 55 54 56 52 52 44 49 51 58 63 65 67 66 68 69 67 63 65 67 69 72 72 72 73 71 69 70 67 64 61 59 58 57 55 54 54 53 53
54 40 47 44 53 52 47 53 55 55 55 54 55 54 66 68 68 65 66 65 56 51 52 57 62 59 57 60 68 72 71 67 67 66 63 61 57 57 55 55 54 53 54 54
38 38 35 33 47 46 36 45 50 53 56 55 44 55 63 61 62 63 65 65 62 61 56 55 56 60 63 63 61 65 69 70 65 64 62 58 57 57 55 56 55 54 53 53
36 35 36 33 41 28 48 60 58 54 55 48 48 54 53 56 53 62 63 55 58 59 54 52 51 53 53 54 56 59 56 62 65 62 60 57 56 52 55 53 44 48 50 41
42 37 33 30 33 42 48 53 48 47 47 44 45 45 48 52 56 57 54 54 54 55 54 53 52 51 51 53 56 58 59 59 60 57 56 51 49 45 51 40 39 39 39 37
46 41 33 32 27 25 44 48 53 51 37 43 45 44 42 45 42 42 53 55 54 55 55 46 51 55 56 53 56 58 60 60 56 54 51 48 42 41 39 38 37 35 35 34
35 32 29 32 29 37 49 48 51 33 37 46 46 47 45 41 44 50 53 54 55 55 55 58 58 44 53 57 55 54 55 57 45 47 43 44 44 42 39 37 36 35 34 34
38 34 33 35 30 28 51 48 37 44 50 51 52 52 50 51 51 49 51 52 54 55 57 59 58 59 57 55 51 49 55 54 47 43 42 42 41 41 40 37 35 35 34 34
34 42 38 41 40 49 53 51 55 55 52 52 52 53 53 50 48 46 47 48 50 53 56 60 61 60 60 60 55 49 48 54 43 43 42 41 42 42 41 38 35 36 36 36
46 50 41 40 46 48 51 54 55 56 54 56 56 55 53 44 39 39 47 49 51 53 54 57 59 59 58 60 56 51 53 45 42 41 40 41 41 40 40 39 38 38 37 37
44 46 41 40 46 48 51 53 55 54 54 54 55 54 53 52 51 51 51 51 53 54 55 55 53 53 56 59 55 51 45 45 41 41 40 39 40 39 38 38 39 40 40 41
48 43 38 36 47 46 49 53 54 51 51 53 52 52 54 54 52 53 53 53 52 52 53 53 52 51 51 55 54 47 45 43 41 38 38 38 39 39 38 38 37 36 38 37
MSLP
1007.70 1007.10 1005.47 1004.88 1004.46 1004.13 1003.72 1003.12 1001.73 1001.18 1001.14 1000.62 1000.26 999.45 999.42 999.49 999.10 998.55 998.25 998.47 998.84 999.07 999.26 999.62 999.98 1000.40 1000.48 1000.92 1001.92 1003.05 1004.59 1006.18 1007.42 1007.99 1008.49 1009.09 1009.58 1010.46 1011.39 1012.16 1012.38 1012.65 1012.77 1013.12
1006.10 1004.97 1004.88 1004.29 1004.03 1003.77 1003.56 1003.10 1002.18 1001.55 1001.69 1001.37 1000.56 998.96 998.95 998.72 997.92 997.68 997.70 997.92 998.34 998.71 998.99 999.64 1000.92 1000.81 1000.72 1001.15 1002.12 1002.96 1004.43 1006.12 1007.16 1008.17 1008.84 1009.65 1010.30 1011.08 1011.93 1012.92 1013.36 1013.37 1013.62 1013.99
1004.59 1003.12 1003.82 1004.41 1004.10 1003.76 1003.77 1003.65 1003.05 1002.66 1002.36 1002.08 1001.36 998.57 998.02 996.73 997.24 997.28 997.60 998.23 998.69 998.92 999.28 1000.24 1001.48 1001.72 1001.45 1001.78 1002.44 1003.93 1005.14 1006.27 1007.28 1008.16 1009.14 1010.13 1011.03 1012.30 1012.97 1013.42 1013.67 1013.88 1013.96 1014.32
1003.86 1003.60 1003.56 1003.57 1003.43 1004.17 1003.44 1003.98 1004.00 1003.78 1003.67 1002.13 1001.89 998.20 998.40 997.54 997.22 997.00 997.49 999.00 999.64 1000.08 1000.98 1001.55 1002.17 1002.06 1002.45 1002.91 1003.26 1004.46 1005.35 1006.37 1007.25 1008.10 1009.20 1010.01 1010.70 1011.69 1012.36 1013.04 1013.79 1014.33 1014.45 1015.00
1002.30 1003.15 1003.54 1003.77 1003.43 1003.62 1003.11 1004.30 1004.23 1003.92 1003.50 1002.70 1001.48 999.86 996.69 996.30 996.53 996.81 998.09 999.62 1000.45 1001.12 1001.86 1002.27 1002.90 1003.38 1004.07 1005.04 1005.34 1005.13 1005.82 1006.58 1007.46 1008.43 1009.19 1010.03 1010.87 1011.58 1012.43 1013.46 1014.25 1014.96 1015.38 1015.84
1003.55 1003.81 1003.94 1003.81 1003.58 1003.67 1003.84 1004.58 1004.54 1004.36 1003.94 1001.68 999.88 999.25 996.56 995.71 996.79 997.30 998.73 1000.37 1001.22 1002.00 1002.38 1002.66 1003.40 1004.20 1005.19 1006.01 1006.29 1006.41 1006.73 1007.52 1008.03 1008.73 1009.58 1010.21 1011.10 1011.96 1012.76 1013.51 1014.38 1015.17 1015.84 1016.26
1003.94 1003.05 1003.39 1004.28 1004.02 1003.98 1004.08 1004.24 1003.52 1003.22 1002.58 1000.25 998.77 998.10 996.96 997.27 997.66 998.61 999.73 1000.68 1001.69 1002.48 1002.70 1002.85 1003.35 1003.92 1005.21 1006.19 1006.79 1007.08 1007.37 1008.02 1008.60 1009.12 1009.78 1010.54 1011.26 1011.82 1012.79 1013.60 1014.33 1015.12 1015.66 1016.46
1001.88 1001.52 1002.00 1002.73 1003.27 1002.62 1003.26 1003.38 1002.46 1001.92 1000.92 999.32 998.44 997.07 996.67 997.88 998.76 999.34 999.94 1000.42 1001.50 1002.63 1003.10 1003.04 1003.32 1003.89 1004.74 1005.73 1006.52 1007.33 1007.90 1008.31 1008.80 1009.15 1009.82 1010.37 1011.14 1011.92 1012.30 1013.01 1013.84 1014.94 1014.66 1015.22
1000.39 1000.24 1001.16 1001.74 1002.47 1002.86 1002.04 1002.77 1002.93 1002.40 1002.08 1001.16 999.49 997.50 996.95 998.15 999.04 999.58 1000.03 1000.64 1001.43 1002.22 1002.99 1003.29 1003.80 1003.98 1004.34 1004.90 1005.68 1006.34 1007.03 1007.84 1008.67 1009.25 1009.84 1010.55 1011.25 1011.56 1012.20 1012.96 1013.68 1015.28 1015.21 1014.51
1000.82 1000.71 1001.13 1001.81 1002.43 1002.38 1002.19 1002.10 1002.67 1002.99 1002.63 1001.36 998.91 997.65 996.78 997.44 998.36 999.74 1000.34 1000.59 1000.94 1001.72 1002.48 1003.14 1003.86 1004.26 1004.09 1004.36 1005.00 1005.78 1006.54 1007.49 1008.57 1009.26 1009.90 1010.62 1011.43 1012.16 1012.72 1013.38 1013.77 1014.82 1016.03 1015.35
1001.85 1001.90 1001.07 1001.62 1001.91 1001.48 1002.11 1002.32 1002.82 1002.89 1002.54 1001.62 999.78 997.42 997.31 998.05 998.89 999.20 999.79 1000.47 1000.92 1001.29 1002.06 1002.92 1003.70 1004.10 1004.20 1004.52 1005.22 1005.93 1006.52 1007.43 1008.60 1009.51 1010.22 1011.02 1011.63 1012.25 1013.10 1013.62 1014.10 1014.84 1015.29 1015.66
1002.50 1002.46 1001.67 1001.14 1000.86 1001.11 1001.31 1001.22 1002.03 1002.90 1002.40 1001.96 1001.05 998.13 998.53 998.00 998.42 998.96 999.61 999.81 1000.28 1001.24 1001.55 1002.55 1003.24 1003.69 1004.10 1004.64 1005.33 1006.00 1006.54 1007.33 1008.49 1009.16 1010.09 1010.80 1011.50 1012.11 1012.81 1013.36 1013.99 1014.52 1015.09 1015.86
1003.14 1003.51 1002.65 1001.87 1001.59 1001.44 1001.36 1001.61 1001.76 1002.38 1002.60 1001.61 1001.39 998.62 999.24 998.64 998.92 999.81 999.97 999.89 999.97 1000.66 1001.64 1002.16 1002.68 1003.18 1003.65 1004.10 1004.62 1005.16 1005.98 1006.99 1007.66 1008.59 1009.70 1010.58 1011.38 1011.88 1012.62 1013.19 1013.77 1014.57 1015.12 1015.92
1004.23 1003.75 1003.01 1001.73 1001.31 1001.70 1001.78 1001.88 1002.13 1002.31 1002.45 1001.53 1000.69 999.88 998.60 998.96 999.61 999.95 999.70 999.89 1000.20 1000.32 1001.16 1001.51 1002.59 1002.98 1003.43 1003.75 1003.95 1004.49 1005.29 1006.10 1006.82 1007.86 1009.20 1010.27 1011.07 1011.52 1012.30 1013.28 1013.95 1014.50 1015.10 1015.53
1005.51 1004.34 1003.98 1002.89 1002.57 1002.56 1002.32 1002.20 1001.90 1001.85 1002.18 1001.82 1000.98 1000.70 999.73 999.35 1000.00 1000.24 1000.70 1000.70 1000.96 1000.54 1001.99 1002.59 1002.65 1002.98 1003.36 1003.94 1003.96 1003.86 1004.38 1005.64 1006.52 1007.16 1008.35 1009.41 1010.04 1010.84 1011.81 1012.80 1013.42 1013.92 1014.52 1015.14
1006.42 1005.82 1005.60 1004.26 1003.59 1003.36 1002.64 1002.43 1001.72 1001.66 1001.72 1001.40 1001.12 999.98 999.77 999.81 1000.10 1000.76 1000.72 1001.41 1001.98 1003.65 1003.54 1004.80 1004.29 1005.14 1004.13 1004.98 1003.10 1003.52 1003.79 1004.92 1006.07 1006.91 1007.74 1008.95 1009.99 1010.75 1011.42 1012.36 1013.10 1013.74 1014.23 1014.66
1008.22 1007.63 1007.12 1005.07 1004.34 1003.94 1002.96 1001.85 1002.28 1001.97 1001.90 1001.88 1001.29 1001.05 1001.09 1000.72 1000.92 1000.99 1001.08 1001.77 1002.74 1003.71 1005.00 1005.18 1005.52 1006.34 1005.04 1005.12 1005.56 1003.57 1003.46 1004.31 1005.30 1006.64 1007.66 1008.34 1009.32 1010.38 1010.95 1011.89 1012.46 1013.20 1013.77 1014.49
1009.15 1008.86 1008.26 1006.61 1005.51 1003.14 1001.58 1001.44 1001.21 1001.16 1001.92 1003.11 1003.23 1002.86 1002.82 1002.29 1002.22 1002.04 1002.18 1003.03 1003.91 1004.12 1005.71 1006.30 1006.32 1006.18 1006.87 1006.84 1006.09 1005.56 1004.52 1005.18 1005.06 1005.94 1007.10 1008.23 1009.23 1009.99 1010.80 1011.68 1012.24 1012.98 1013.77 1014.96
1009.54 1009.58 1008.92 1007.82 1005.96 1003.90 1002.86 1002.52 1002.89 1002.98 1003.59 1005.58 1005.48 1005.35 1005.32 1004.90 1004.04 1003.80 1004.81 1004.92 1005.51 1005.64 1005.98 1006.58 1006.84 1006.82 1007.10 1006.75 1006.04 1006.04 1005.22 1005.10 1005.39 1005.70 1006.56 1007.73 1008.77 1009.68 1010.71 1012.02 1012.52 1013.22 1013.95 1015.40
1008.62 1009.27 1009.41 1008.29 1006.83 1005.01 1003.67 1004.63 1004.86 1005.02 1004.98 1006.42 1006.76 1006.78 1006.94 1006.76 1005.70 1006.11 1005.96 1006.12 1006.52 1006.78 1006.65 1006.63 1006.75 1006.76 1006.37 1005.93 1005.76 1005.11 1004.60 1004.74 1004.87 1005.17 1005.99 1007.12 1008.19 1009.34 1010.32 1011.50 1012.56 1013.40 1014.21 1015.26
1007.76 1008.68 1008.30 1007.70 1006.61 1005.03 1004.44 1005.11 1005.28 1005.48 1006.27 1006.68 1006.96 1006.93 1007.28 1007.28 1007.44 1006.96 1006.66 1006.43 1006.56 1006.64 1006.36 1005.69 1005.28 1005.32 1005.30 1005.07 1005.32 1004.66 1003.96 1003.51 1004.12 1005.27 1006.11 1006.84 1007.88 1008.97 1010.15 1011.23 1012.31 1013.44 1014.15 1015.08
1005.93 1006.47 1006.21 1006.44 1005.74 1004.66 1004.64 1005.14 1005.78 1005.96 1006.02 1006.30 1006.04 1006.14 1006.34 1006.49 1006.41 1006.47 1006.35 1006.08 1005.76 1005.58 1005.14 1004.93 1004.58 1004.07 1003.91 1004.30 1004.78 1004.07 1002.98 1003.02 1003.94 1004.75 1006.30 1007.09 1007.49 1008.66 1009.87 1010.66 1011.85 1013.26 1013.78 1014.66
1005.90 1005.23 1005.05 1005.10 1004.59 1004.92 1005.00 1005.21 1005.24 1005.24 1005.36 1005.68 1005.74 1005.81 1006.05 1005.94 1006.06 1006.15 1006.09 1006.16 1005.82 1005.40 1004.72 1004.00 1003.43 1003.05 1003.08 1003.29 1003.90 1003.82 1003.44 1003.16 1004.23 1005.16 1006.01 1006.83 1007.50 1008.45 1009.04 1010.10 1011.42 1012.62 1013.42 1014.00
1005.11 1005.28 1005.34 1005.55 1005.20 1005.15 1005.05 1004.96 1004.88 1004.87 1004.74 1004.77 1004.86 1005.04 1005.32 1005.45 1005.81 1005.78 1005.48 1005.16 1004.82 1004.50 1004.09 1003.37 1002.66 1002.24 1002.40 1002.35 1003.03 1003.57 1003.44 1003.79 1004.32 1004.80 1005.53 1006.54 1007.05 1007.99 1008.72 1009.90 1010.74 1011.49 1012.46 1013.03
1005.08 1005.41 1005.31 1005.16 1005.24 1005.30 1004.98 1004.50 1004.32 1004.54 1005.04 1005.03 1004.98 1004.78 1004.46 1004.23 1004.05 1004.10 1003.95 1003.83 1003.39 1003.09 1003.10 1002.86 1002.82 1002.53 1001.98 1001.83 1002.47 1003.04 1003.74 1003.76 1003.95 1004.77 1005.32 1006.11 1006.40 1007.30 1008.27 1009.17 1009.82 1010.21 1011.19 1011.63
1004.92 1004.78 1004.94 1004.71 1004.81 1004.68 1004.38 1004.37 1004.61 1004.78 1004.74 1004.60 1004.24 1003.74 1003.48 1003.26 1002.79 1002.62 1002.19 1002.27 1002.43 1002.41 1002.20 1001.98 1002.02 1002.37 1001.85 1001.92 1001.66 1002.69 1003.78 1003.68 1003.84 1004.38 1004.70 1005.02 1005.83 1006.66 1007.74 1008.80 1009.78 1010.55 1010.92 1011.92
Wind_Speed
16 11 16 19 19 21 21 23 27 24 23 24 26 30 26 25 25 25 24 21 20 19 17 15 5 10 12 14 16 18 18 17 11 9 8 8 8 5 4 3 4 6 4 9
14 20 18 20 21 22 21 23 26 26 20 20 25 29 26 29 31 29 25 21 20 17 16 6 4 7 10 12 13 16 15 16 13 7 7 4 5 3 6 5 5 5 6 4
23 22 8 6 11 19 18 22 22 25 22 21 23 30 22 9 5 8 8 10 8 10 5 2 3 4 6 11 13 9 12 13 13 9 6 5 8 5 4 5 4 5 8 8
22 23 25 27 26 16 23 17 17 16 15 16 11 16 16 23 22 11 8 3 5 2 2 3 4 3 2 8 3 12 13 13 11 10 9 11 6 6 4 6 7 6 9 10
24 14 16 18 23 23 22 18 16 17 19 21 17 15 5 4 12 11 6 6 5 3 2 2 1 2 2 6 7 3 8 10 8 9 9 8 7 8 8 8 11 11 9 11
26 22 10 13 13 13 15 7 14 15 13 14 18 17 9 6 9 11 8 5 3 4 4 2 4 5 6 5 6 8 11 8 8 9 9 11 13 11 10 10 9 7 6 7
24 26 24 9 12 10 12 12 7 10 11 10 4 8 14 7 8 7 5 3 4 4 4 5 5 6 6 6 6 8 10 10 10 11 11 12 12 13 13 10 9 9 7 4
15 13 26 22 22 11 16 17 8 9 11 12 4 8 2 7 7 5 1 5 4 6 6 6 5 6 7 8 9 8 9 11 11 13 13 12 13 9 11 12 11 8 8 8
11 6 17 7 13 16 13 16 18 19 17 16 13 20 14 10 6 5 6 7 9 9 8 8 7 7 8 9 9 11 12 12 12 12 12 11 11 12 10 11 9 7 5 10
2 5 15 14 12 14 18 3 12 8 7 13 15 18 13 7 6 4 8 10 10 10 10 8 8 7 8 9 10 10 10 12 11 11 9 9 10 10 11 9 10 11 8 12
9 7 7 11 12 13 12 15 12 10 14 13 18 17 7 9 6 7 7 8 11 12 11 9 9 9 9 10 11 11 12 14 13 11 11 11 11 12 11 11 11 11 13 14
13 6 12 18 14 16 18 18 20 12 18 13 18 24 13 17 19 12 10 10 12 13 13 12 11 11 12 11 11 11 11 12 12 13 12 12 12 12 11 11 11 12 12 12
10 7 9 17 17 18 19 20 17 16 18 25 17 22 14 21 15 9 15 15 13 14 14 15 15 14 14 13 12 13 12 13 14 14 14 12 12 11 11 12 12 12 9 9
1 16 18 17 16 6 12 22 20 22 16 19 21 26 29 24 17 19 18 15 17 12 17 18 16 14 13 14 14 14 13 14 15 14 13 12 11 11 12 12 13 14 14 14
7 18 21 24 24 23 23 21 23 24 21 22 22 24 26 26 22 21 15 16 19 9 7 10 10 10 12 15 15 15 15 13 14 15 15 13 13 13 12 12 13 13 13 12
11 9 16 24 25 24 23 25 29 28 25 29 31 32 26 23 22 22 18 19 9 15 9 17 14 13 9 14 13 16 15 15 12 14 14 12 11 13 12 13 13 13 14 14
3 4 5 15 22 22 20 28 28 28 29 29 25 26 26 25 22 24 23 13 15 8 6 2 6 17 12 8 12 15 13 15 14 16 13 11 13 14 13 14 15 14 13 13
3 1 3 4 10 17 11 16 21 21 19 12 16 14 17 18 13 15 13 11 15 10 6 7 5 10 17 15 15 19 6 12 15 15 14 14 13 12 15 13 10 12 11 8
9 3 3 5 8 17 18 10 8 9 5 9 10 13 13 18 16 4 14 13 12 12 9 7 7 10 14 16 14 14 13 19 15 15 13 14 13 14 15 10 10 8 11 9
13 11 6 4 6 6 7 7 7 6 11 5 6 8 11 16 9 5 12 13 14 16 12 5 10 12 15 13 13 15 14 13 15 13 14 15 14 15 13 15 13 7 10 10
8 5 13 14 12 10 4 4 4 9 5 6 5 9 9 8 9 17 19 16 14 13 15 14 12 8 10 13 12 16 16 18 9 10 9 14 15 15 13 14 10 11 12 12
12 11 10 11 13 18 7 1 5 10 14 14 14 14 15 17 17 14 16 17 17 17 16 15 15 12 8 7 10 15 18 9 9 11 12 12 15 12 12 14 11 11 13 12
7 10 7 7 7 5 9 13 14 13 14 15 17 18 19 20 17 14 15 17 18 21 20 19 15 15 12 8 10 15 13 7 10 11 13 12 13 12 13 14 14 11 11 9
12 11 8 12 12 16 16 17 17 19 19 17 16 17 18 15 9 10 15 17 18 18 18 19 18 17 15 12 8 12 11 8 10 12 13 13 14 13 12 10 10 10 11 9
11 7 10 12 14 17 19 18 16 16 19 20 21 23 23 23 23 23 20 21 19 18 19 17 16 16 20 12 10 10 6 8 10 11 12 13 12 13 12 10 11 10 10 10
12 14 11 12 15 16 17 17 18 18 20 21 22 23 23 23 23 25 20 17 17 17 19 19 16 17 16 18 8 6 10 10 11 12 11 11 11 11 10 10 8 6 9 10
Wind_Direction
199 224 213 237 237 252 272 280 280 282 289 284 282 283 283 284 278 277 275 273 272 268 265 249 303 271 240 211 209 189 183 186 200 195 184 188 184 156 117 124 173 192 175 185
219 234 252 265 271 274 267 271 269 281 279 272 278 280 288 283 268 264 269 273 262 256 250 211 304 280 224 209 218 191 188 183 194 177 175 174 171 127 140 132 126 101 110 102
249 252 206 257 272 262 254 265 273 281 301 295 286 280 276 267 342 288 278 282 309 272 218 161 299 285 263 218 205 179 181 184 185 173 141 88 90 99 124 151 115 98 92 76
259 265 260 262 260 246 263 257 269 280 289 278 313 292 290 288 288 217 227 180 234 162 158 246 324 287 241 357 183 175 169 176 176 151 143 163 168 161 146 131 107 77 84 83
236 244 246 250 259 254 250 268 274 276 273 285 268 261 294 178 209 206 159 182 173 145 210 211 84 18 55 8 12 155 157 163 140 142 152 158 109 107 111 109 108 96 85 80
257 263 229 269 269 249 255 255 264 255 260 259 246 234 285 310 33 90 108 157 217 221 212 172 127 125 99 85 79 80 96 83 112 125 128 129 130 128 124 127 116 112 109 109
234 235 240 199 241 212 216 201 234 219 216 241 314 254 245 144 151 117 124 183 205 216 226 195 179 152 132 128 119 117 119 114 111 113 120 126 127 130 126 125 126 136 136 131
204 198 214 216 222 207 203 209 229 238 247 276 4 250 266 60 108 125 257 264 189 214 212 217 178 163 151 153 153 145 142 137 139 139 143 144 144 150 150 156 153 155 166 149
200 217 160 195 195 220 193 209 243 275 286 285 267 272 263 155 178 182 185 204 213 214 202 200 189 177 169 164 158 164 165 161 160 154 149 150 155 152 155 147 144 149 125 117
298 212 180 175 202 213 249 231 216 218 251 242 258 266 272 221 186 188 233 221 212 200 194 190 195 190 178 162 152 146 145 138 145 138 140 131 144 136 136 121 124 130 134 127
215 232 166 147 195 228 194 235 242 292 233 254 271 266 309 52 19 332 240 231 231 204 201 189 192 199 163 149 140 147 147 144 139 139 141 143 144 140 143 148 145 151 153 150
212 263 245 231 226 222 239 247 221 218 235 238 250 267 280 296 311 307 280 260 227 218 204 191 191 187 172 169 163 163 159 155 156 160 152 157 155 154 155 155 156 161 154 159
170 220 255 256 247 244 250 245 250 244 245 244 247 257 267 275 291 287 291 277 239 219 216 197 195 197 192 185 182 171 171 171 169 165 165 159 158 158 159 162 158 160 144 145
193 230 235 250 259 306 240 241 246 244 243 262 257 269 275 279 295 316 292 281 271 199 222 206 200 206 207 199 192 185 181 178 174 169 159 163 170 167 162 168 168 164 167 166
234 237 242 254 261 261 265 245 245 244 252 251 262 264 270 280 290 297 303 277 277 239 222 228 222 230 218 218 212 198 182 190 183 174 185 179 179 173 168 165 170 168 170 170
233 250 256 259 258 261 262 260 264 265 262 257 258 260 264 279 295 286 269 285 21 360 24 340 345 322 347 311 225 205 202 177 186 189 184 170 171 176 165 169 169 172 174 171
166 206 202 246 248 257 257 247 257 263 262 270 272 274 280 273 269 272 280 263 266 241 309 276 320 309 307 292 262 268 198 204 174 194 189 164 175 177 171 176 176 174 172 166
141 228 273 299 255 234 250 255 252 258 269 357 339 330 353 338 342 321 330 11 321 3 262 284 305 312 305 315 323 321 24 266 195 196 188 166 177 170 173 174 165 165 161 157
205 277 267 256 251 288 291 322 347 322 269 38 10 11 356 345 314 319 26 32 2 343 341 314 277 258 274 274 276 272 221 216 216 196 183 174 174 165 176 159 155 152 137 139
202 211 234 222 252 262 340 53 4 313 266 25 354 352 350 343 306 55 349 339 333 324 320 275 263 264 265 266 270 260 251 227 211 196 181 174 161 170 164 163 162 149 143 145
172 188 219 231 245 255 87 36 310 247 344 318 312 310 304 284 277 303 311 302 299 292 295 306 292 234 263 283 266 252 244 235 189 195 172 172 168 173 165 156 156 155 157 157
194 201 205 227 256 266 89 356 331 321 303 308 309 294 280 273 277 282 275 278 286 290 284 282 286 281 262 262 271 273 259 220 167 158 173 183 170 165 166 159 150 159 161 160
237 244 255 261 274 136 311 304 297 292 289 282 278 283 284 284 283 285 277 281 287 284 289 287 275 285 299 285 280 270 267 218 161 171 179 176 168 170 167 160 158 160 164 164
227 246 252 265 263 282 296 296 294 288 287 294 297 291 288 286 265 254 266 268 271 271 273 282 292 279 274 290 285 274 284 171 175 181 176 174 170 167 160 164 164 165 170 167
253 295 268 281 281 279 275 276 286 312 306 296 289 285 284 282 277 272 276 278 272 269 275 268 274 281 290 278 289 281 229 197 185 187 179 178 170 172 165 171 178 173 181 172
248 245 242 252 258 266 276 293 305 302 291 288 285 284 283 281 281 280 269 258 265 268 267 265 264 268 272 289 258 248 236 207 195 190 181 174 170 167 167 160 149 125 141 153